Simultaneous Nadir Overpasses (SNOs) Predictions

Prediction of SNOs between GOES-17 and NOAA-19 Satellite Orbit:

Table of predicted SNOs for the next 14.0 days since TLE Epoch: 6/8/2024
Index Date Time (GOES-17) GOES-17 Lat,Lon NOAA-19 Lat,Lon Distance(km) Time Diff (sec)
1 06/08/2024 04:00:01 -0.00,-104.70 0.76,-101.34 383.43 12
2 06/09/2024 16:33:18 -0.02,-104.71 0.98,-108.97 486.31 80
3 06/10/2024 16:21:02 -0.03,-104.71 0.26,-105.99 145.71 80
4 06/11/2024 16:08:45 -0.03,-104.71 -0.40,-103.00 195.15 80
5 06/14/2024 04:28:13 0.04,-104.71 -0.63,-107.64 334.67 80
6 06/15/2024 04:13:16 0.04,-104.71 0.06,-104.65 6.67 80
7 06/16/2024 04:00:58 0.04,-104.71 0.75,-101.66 347.96 80
8 06/18/2024 16:20:26 -0.04,-104.73 0.34,-106.30 179.77 80
9 06/19/2024 16:10:49 -0.04,-104.73 -0.35,-103.31 161.37 80
